| time (UTC) | temp F | wind direction | speed MPH | gust MPH | rain 1hr in | rain 24hr in | rain mn in | humidity % | barometer mb |
| 20260902232403 | 66 | 269 | 10.0 | 16.0 | 0.00 | 0.03 | 0.03 | 80 | 1016.0 |
| 20260902231803 | 66 | 269 | 10.0 | 15.0 | 0.00 | 0.03 | 0.03 | 82 | 1016.0 |
| 20260902231203 | 66 | 271 | 10.0 | 15.0 | 0.00 | 0.03 | 0.03 | 81 | 1016.1 |
| 20260902230004 | 66 | 266 | 10.0 | 15.0 | 0.00 | 0.03 | 0.03 | 81 | 1016.1 |
| 20260902225404 | 67 | 265 | 10.0 | 14.0 | 0.00 | 0.03 | 0.03 | 79 | 1016.2 |
| 20260902224804 | 66 | 268 | 10.0 | 16.0 | 0.00 | 0.03 | 0.03 | 80 | 1016.3 |
| 20260902224204 | 67 | 270 | 11.0 | 16.0 | 0.00 | 0.03 | 0.03 | 78 | 1016.2 |
| 20260902223604 | 67 | 268 | 11.0 | 16.0 | 0.00 | 0.03 | 0.03 | 78 | 1016.2 |
| 20260902223003 | 67 | 267 | 11.0 | 16.0 | 0.00 | 0.03 | 0.03 | 79 | 1016.3 |
| 20260902222403 | 67 | 263 | 11.0 | 16.0 | 0.00 | 0.03 | 0.03 | 77 | 1016.3 |
| 20260902221803 | 67 | 265 | 10.0 | 16.0 | 0.00 | 0.03 | 0.03 | 77 | 1016.4 |
| 20260902221203 | 67 | 265 | 10.0 | 15.0 | 0.00 | 0.03 | 0.03 | 77 | 1016.4 |
| 20260902220603 | 68 | 266 | 9.0 | 15.0 | 0.00 | 0.03 | 0.03 | 77 | 1016.4 |
| 20260902220003 | 68 | 267 | 10.0 | 17.0 | 0.00 | 0.03 | 0.03 | 78 | 1016.5 |
| 20260902215404 | 67 | 267 | 10.0 | 17.0 | 0.00 | 0.03 | 0.03 | 78 | 1016.7 |
| 20260902214803 | 67 | 268 | 11.0 | 15.0 | 0.00 | 0.03 | 0.03 | 78 | 1016.7 |
| 20260902214203 | 67 | 269 | 11.0 | 15.0 | 0.00 | 0.03 | 0.03 | 79 | 1016.7 |
| 20260902213603 | 67 | 268 | 10.0 | 15.0 | 0.00 | 0.03 | 0.03 | 81 | 1016.7 |
| 20260902213003 | 67 | 268 | 10.0 | 14.0 | 0.00 | 0.03 | 0.03 | 81 | 1016.8 |
| 20260902212403 | 67 | 268 | 10.0 | 15.0 | 0.00 | 0.03 | 0.03 | 83 | 1016.8 |
| 20260902211803 | 67 | 268 | 10.0 | 15.0 | 0.00 | 0.03 | 0.03 | 82 | 1016.8 |
| 20260902211203 | 67 | 267 | 10.0 | 15.0 | 0.00 | 0.03 | 0.03 | 82 | 1016.8 |
| 20260902210603 | 66 | 267 | 9.0 | 13.0 | 0.00 | 0.03 | 0.03 | 84 | 1016.8 |
| 20260902210003 | 66 | 268 | 9.0 | 14.0 | 0.00 | 0.03 | 0.03 | 86 | 1016.8 |
| 20260902205403 | 66 | 272 | 10.0 | 14.0 | 0.00 | 0.03 | 0.03 | 87 | 1016.8 |
| 20260902204803 | 65 | 269 | 9.0 | 14.0 | 0.00 | 0.03 | 0.03 | 88 | 1016.8 |
| 20260902204204 | 65 | 269 | 10.0 | 15.0 | 0.00 | 0.03 | 0.03 | 89 | 1016.9 |
| 20260902203604 | 64 | 269 | 10.0 | 15.0 | 0.00 | 0.03 | 0.03 | 90 | 1016.9 |
| 20260902203004 | 64 | 269 | 10.0 | 14.0 | 0.00 | 0.03 | 0.03 | 92 | 1017.0 |
| 20260902202404 | 63 | 271 | 10.0 | 14.0 | 0.00 | 0.03 | 0.03 | 91 | 1017.0 |
| 20260902201804 | 63 | 269 | 10.0 | 15.0 | 0.00 | 0.03 | 0.03 | 92 | 1017.1 |
| 20260902201203 | 63 | 271 | 9.0 | 14.0 | 0.00 | 0.03 | 0.03 | 93 | 1017.0 |
| 20260902200604 | 63 | 273 | 9.0 | 13.0 | 0.00 | 0.03 | 0.03 | 94 | 1017.2 |
| 20260902200003 | 63 | 269 | 9.0 | 13.0 | 0.00 | 0.03 | 0.03 | 94 | 1017.2 |
| 20260902195403 | 63 | 267 | 8.0 | 13.0 | 0.00 | 0.03 | 0.03 | 94 | 1017.3 |
| 20260902194803 | 62 | 273 | 7.0 | 13.0 | 0.00 | 0.03 | 0.03 | 95 | 1017.3 |
| 20260902194203 | 62 | 269 | 6.0 | 11.0 | 0.00 | 0.03 | 0.03 | 95 | 1017.3 |
| 20260902193603 | 62 | 269 | 6.0 | 10.0 | 0.00 | 0.03 | 0.03 | 96 | 1017.4 |
| 20260902193003 | 62 | 270 | 7.0 | 10.0 | 0.00 | 0.03 | 0.03 | 96 | 1017.4 |
| 20260902192403 | 62 | 272 | 7.0 | 12.0 | 0.00 | 0.03 | 0.03 | 97 | 1017.4 |
| 20260902191803 | 61 | 270 | 8.0 | 12.0 | 0.00 | 0.03 | 0.03 | 97 | 1017.4 |
| 20260902191203 | 61 | 269 | 9.0 | 14.0 | 0.00 | 0.03 | 0.03 | 97 | 1017.5 |
| 20260902190603 | 61 | 268 | 9.0 | 14.0 | 0.00 | 0.03 | 0.03 | 97 | 1017.4 |
| 20260902190003 | 61 | 265 | 8.0 | 14.0 | 0.00 | 0.03 | 0.03 | 97 | 1017.4 |
| 20260902185403 | 61 | 268 | 8.0 | 12.0 | 0.00 | 0.03 | 0.03 | 97 | 1017.5 |
| 20260902184803 | 61 | 271 | 8.0 | 16.0 | 0.00 | 0.03 | 0.03 | 97 | 1017.3 |
| 20260902184203 | 61 | 269 | 9.0 | 16.0 | 0.00 | 0.03 | 0.03 | 97 | 1017.4 |
| 20260902183604 | 61 | 267 | 9.0 | 14.0 | 0.00 | 0.03 | 0.03 | 98 | 1017.4 |
| 20260902183004 | 61 | 270 | 9.0 | 17.0 | 0.00 | 0.03 | 0.03 | 98 | 1017.4 |
| 20260902182404 | 61 | 269 | 9.0 | 17.0 | 0.00 | 0.03 | 0.03 | 98 | 1017.3 |
| 20260902181804 | 61 | 269 | 9.0 | 13.0 | 0.00 | 0.03 | 0.03 | 98 | 1017.3 |
| 20260902181204 | 61 | 269 | 8.0 | 12.0 | 0.00 | 0.03 | 0.03 | 98 | 1017.2 |
| 20260902180603 | 61 | 269 | 8.0 | 12.0 | 0.00 | 0.03 | 0.03 | 98 | 1017.2 |
| 20260902180006 | 61 | 269 | 8.0 | 11.0 | 0.00 | 0.03 | 0.03 | 98 | 1017.2 |
| 20260902175403 | 61 | 269 | 7.0 | 11.0 | 0.01 | 0.03 | 0.03 | 98 | 1017.1 |
| 20260902174803 | 60 | 269 | 7.0 | 11.0 | 0.01 | 0.03 | 0.03 | 98 | 1017.1 |
| 20260902174204 | 61 | 270 | 6.0 | 11.0 | 0.01 | 0.03 | 0.03 | 98 | 1017.0 |
| 20260902173603 | 60 | 270 | 7.0 | 12.0 | 0.03 | 0.03 | 0.03 | 98 | 1016.8 |
| 20260902173003 | 60 | 270 | 7.0 | 12.0 | 0.03 | 0.03 | 0.03 | 98 | 1016.7 |
| 20260902172403 | 60 | 268 | 7.0 | 13.0 | 0.03 | 0.03 | 0.03 | 98 | 1016.6 |
| 20260902171803 | 60 | 270 | 8.0 | 13.0 | 0.03 | 0.03 | 0.03 | 97 | 1016.6 |
| 20260902171203 | 60 | 270 | 8.0 | 12.0 | 0.03 | 0.03 | 0.03 | 97 | 1016.5 |
| 20260902170603 | 60 | 269 | 8.0 | 14.0 | 0.03 | 0.03 | 0.03 | 97 | 1016.5 |
| 20260902170003 | 60 | 269 | 8.0 | 14.0 | 0.03 | 0.03 | 0.03 | 97 | 1016.5 |
| 20260902165403 | 60 | 269 | 8.0 | 13.0 | 0.01 | 0.01 | 0.01 | 96 | 1016.6 |
| 20260902164803 | 61 | 269 | 8.0 | 13.0 | 0.01 | 0.01 | 0.01 | 96 | 1016.4 |
| 20260902164203 | 61 | 270 | 8.0 | 17.0 | 0.00 | 0.00 | 0.00 | 95 | 1016.3 |
| 20260902163603 | 61 | 272 | 9.0 | 17.0 | 0.00 | 0.00 | 0.00 | 95 | 1016.3 |
| 20260902163003 | 61 | 272 | 9.0 | 14.0 | 0.00 | 0.00 | 0.00 | 94 | 1016.3 |
| 20260902162403 | 61 | 271 | 9.0 | 15.0 | 0.00 | 0.00 | 0.00 | 93 | 1016.2 |
| 20260902161804 | 61 | 269 | 8.0 | 15.0 | 0.00 | 0.00 | 0.00 | 93 | 1016.2 |
| 20260902161204 | 61 | 269 | 8.0 | 14.0 | 0.00 | 0.00 | 0.00 | 93 | 1016.3 |
| 20260902160604 | 61 | 269 | 9.0 | 13.0 | 0.00 | 0.00 | 0.00 | 93 | 1016.3 |
| 20260902160006 | 61 | 269 | 9.0 | 14.0 | 0.00 | 0.00 | 0.00 | 92 | 1016.2 |
| 20260902155404 | 61 | 269 | 8.0 | 14.0 | 0.00 | 0.00 | 0.00 | 92 | 1016.2 |
| 20260902154804 | 61 | 271 | 7.0 | 11.0 | 0.00 | 0.00 | 0.00 | 92 | 1016.1 |
| 20260902154203 | 60 | 271 | 5.0 | 10.0 | 0.00 | 0.00 | 0.00 | 92 | 1016.2 |
| 20260902153603 | 60 | 273 | 5.0 | 7.0 | 0.00 | 0.00 | 0.00 | 93 | 1016.2 |
| 20260902153003 | 60 | 275 | 4.0 | 7.0 | 0.00 | 0.00 | 0.00 | 93 | 1016.3 |
| 20260902152403 | 60 | 273 | 3.0 | 7.0 | 0.00 | 0.00 | 0.00 | 93 | 1016.5 |
| 20260902151803 | 60 | 273 | 3.0 | 7.0 | 0.00 | 0.00 | 0.00 | 93 | 1016.4 |
| 20260902151203 | 60 | 277 | 3.0 | 7.0 | 0.00 | 0.00 | 0.00 | 94 | 1016.3 |
| 20260902150603 | 59 | 274 | 3.0 | 7.0 | 0.00 | 0.00 | 0.00 | 94 | 1016.3 |
| 20260902150003 | 59 | 273 | 3.0 | 6.0 | 0.00 | 0.00 | 0.00 | 95 | 1016.1 |
| 20260902145403 | 59 | 273 | 3.0 | 6.0 | 0.00 | 0.00 | 0.00 | 95 | 1016.0 |
| 20260902144803 | 59 | 271 | 3.0 | 6.0 | 0.00 | 0.00 | 0.00 | 95 | 1016.0 |
| 20260902144203 | 59 | 272 | 3.0 | 6.0 | 0.00 | 0.00 | 0.00 | 94 | 1015.8 |
| 20260902143603 | 59 | 270 | 4.0 | 7.0 | 0.00 | 0.00 | 0.00 | 94 | 1015.7 |
| 20260902143003 | 59 | 270 | 4.0 | 7.0 | 0.00 | 0.00 | 0.00 | 94 | 1015.6 |
| 20260902142403 | 59 | 269 | 5.0 | 7.0 | 0.00 | 0.00 | 0.00 | 94 | 1015.6 |
| 20260902141803 | 59 | 269 | 5.0 | 7.0 | 0.00 | 0.00 | 0.00 | 94 | 1015.5 |
| 20260902141203 | 59 | 269 | 5.0 | 10.0 | 0.00 | 0.00 | 0.00 | 94 | 1015.5 |
| 20260902140604 | 59 | 270 | 5.0 | 10.0 | 0.00 | 0.00 | 0.00 | 93 | 1015.5 |
| 20260902140004 | 59 | 268 | 7.0 | 13.0 | 0.00 | 0.00 | 0.00 | 92 | 1015.6 |
| 20260902135404 | 60 | 270 | 7.0 | 13.0 | 0.00 | 0.00 | 0.00 | 90 | 1015.6 |
| 20260902134804 | 60 | 271 | 6.0 | 10.0 | 0.00 | 0.00 | 0.00 | 88 | 1015.6 |
| 20260902134203 | 60 | 271 | 6.0 | 10.0 | 0.00 | 0.00 | 0.00 | 87 | 1015.5 |
| 20260902133603 | 60 | 273 | 6.0 | 10.0 | 0.00 | 0.00 | 0.00 | 88 | 1015.5 |
| 20260902133004 | 60 | 272 | 5.0 | 9.0 | 0.00 | 0.00 | 0.00 | 90 | 1015.5 |
| 20260902132404 | 60 | 272 | 4.0 | 7.0 | 0.00 | 0.00 | 0.00 | 91 | 1015.4 |
| 20260902131803 | 60 | 271 | 4.0 | 7.0 | 0.00 | 0.00 | 0.00 | 91 | 1015.4 |
| 20260902131203 | 60 | 275 | 3.0 | 7.0 | 0.00 | 0.00 | 0.00 | 91 | 1015.4 |
| 20260902130603 | 60 | 276 | 2.0 | 7.0 | 0.00 | 0.00 | 0.00 | 91 | 1015.4 |
| 20260902130003 | 60 | 270 | 2.0 | 7.0 | 0.00 | 0.00 | 0.00 | 91 | 1015.4 |
| 20260902125403 | 60 | 259 | 1.0 | 3.0 | 0.00 | 0.00 | 0.00 | 91 | 1015.5 |
| 20260902124803 | 60 | 220 | 1.0 | 4.0 | 0.00 | 0.00 | 0.00 | 92 | 1015.5 |
| 20260902124203 | 60 | 223 | 2.0 | 7.0 | 0.00 | 0.00 | 0.00 | 92 | 1015.4 |
| 20260902123603 | 60 | 251 | 2.0 | 7.0 | 0.00 | 0.00 | 0.00 | 92 | 1015.4 |
| 20260902123003 | 60 | 261 | 2.0 | 6.0 | 0.00 | 0.00 | 0.00 | 91 | 1015.4 |
| 20260902122403 | 60 | 269 | 1.0 | 3.0 | 0.00 | 0.00 | 0.00 | 91 | 1015.3 |
| 20260902121803 | 60 | 272 | 2.0 | 4.0 | 0.00 | 0.00 | 0.00 | 91 | 1015.2 |
| 20260902121203 | 60 | 274 | 3.0 | 4.0 | 0.00 | 0.00 | 0.00 | 91 | 1015.2 |
| 20260902120603 | 60 | 277 | 3.0 | 4.0 | 0.00 | 0.00 | 0.00 | 91 | 1015.4 |
| 20260902120003 | 60 | 278 | 3.0 | 4.0 | 0.00 | 0.00 | 0.00 | 91 | 1015.4 |
| 20260902115403 | 60 | 277 | 2.0 | 4.0 | 0.00 | 0.00 | 0.00 | 91 | 1015.4 |
| 20260902114804 | 60 | 278 | 2.0 | 6.0 | 0.00 | 0.00 | 0.00 | 91 | 1015.3 |
| 20260902114204 | 60 | 279 | 3.0 | 6.0 | 0.00 | 0.00 | 0.00 | 91 | 1015.4 |
| 20260902113604 | 60 | 276 | 3.0 | 7.0 | 0.00 | 0.00 | 0.00 | 90 | 1015.2 |
| 20260902113004 | 60 | 273 | 4.0 | 7.0 | 0.00 | 0.00 | 0.00 | 90 | 1015.3 |
| 20260902112404 | 60 | 270 | 5.0 | 9.0 | 0.00 | 0.00 | 0.00 | 91 | 1015.2 |
| 20260902111803 | 60 | 269 | 5.0 | 9.0 | 0.00 | 0.00 | 0.00 | 91 | 1015.2 |
| 20260902111203 | 60 | 272 | 5.0 | 8.0 | 0.00 | 0.00 | 0.00 | 91 | 1015.3 |
| 20260902110604 | 60 | 271 | 5.0 | 8.0 | 0.00 | 0.00 | 0.00 | 92 | 1015.3 |
| 20260902105404 | 60 | 274 | 6.0 | 10.0 | 0.00 | 0.00 | 0.00 | 92 | 1015.3 |
| 20260902104803 | 60 | 271 | 7.0 | 10.0 | 0.00 | 0.00 | 0.00 | 92 | 1015.4 |
| 20260902104203 | 60 | 271 | 7.0 | 11.0 | 0.00 | 0.00 | 0.00 | 92 | 1015.4 |
| 20260902103603 | 60 | 271 | 7.0 | 11.0 | 0.00 | 0.00 | 0.00 | 92 | 1015.4 |
| 20260902103003 | 60 | 270 | 7.0 | 12.0 | 0.00 | 0.00 | 0.00 | 92 | 1015.4 |
| 20260902102403 | 60 | 272 | 7.0 | 12.0 | 0.00 | 0.00 | 0.00 | 92 | 1015.4 |
| 20260902101803 | 60 | 273 | 6.0 | 11.0 | 0.00 | 0.00 | 0.00 | 93 | 1015.3 |
| 20260902101203 | 60 | 272 | 7.0 | 11.0 | 0.00 | 0.00 | 0.00 | 93 | 1015.4 |
| 20260902100603 | 60 | 272 | 6.0 | 12.0 | 0.00 | 0.00 | 0.00 | 93 | 1015.4 |
| 20260902095403 | 60 | 272 | 6.0 | 11.0 | 0.00 | 0.00 | 0.00 | 93 | 1015.3 |
| 20260902094803 | 60 | 272 | 6.0 | 10.0 | 0.00 | 0.00 | 0.00 | 93 | 1015.4 |
| 20260902094203 | 60 | 271 | 6.0 | 10.0 | 0.00 | 0.00 | 0.00 | 93 | 1015.5 |
| 20260902093603 | 60 | 270 | 5.0 | 10.0 | 0.00 | 0.00 | 0.00 | 93 | 1015.4 |
| 20260902093004 | 60 | 273 | 5.0 | 8.0 | 0.00 | 0.00 | 0.00 | 93 | 1015.5 |
| 20260902092404 | 60 | 271 | 5.0 | 9.0 | 0.00 | 0.00 | 0.00 | 93 | 1015.5 |
| 20260902091804 | 60 | 272 | 6.0 | 9.0 | 0.00 | 0.00 | 0.00 | 93 | 1015.5 |
| 20260902091204 | 60 | 273 | 6.0 | 9.0 | 0.00 | 0.00 | 0.00 | 92 | 1015.4 |
| 20260902090604 | 60 | 274 | 6.0 | 10.0 | 0.00 | 0.00 | 0.00 | 93 | 1015.4 |
| 20260902090005 | 60 | 275 | 5.0 | 11.0 | 0.00 | 0.00 | 0.00 | 93 | 1015.5 |
| 20260902085403 | 60 | 272 | 6.0 | 11.0 | 0.00 | 0.00 | 0.00 | 93 | 1015.6 |
| 20260902084804 | 60 | 272 | 6.0 | 10.0 | 0.00 | 0.00 | 0.00 | 93 | 1015.7 |
| 20260902084204 | 60 | 273 | 6.0 | 10.0 | 0.00 | 0.00 | 0.00 | 93 | 1015.7 |
| 20260902083603 | 60 | 270 | 6.0 | 10.0 | 0.00 | 0.00 | 0.00 | 93 | 1015.7 |
| 20260902083003 | 60 | 271 | 7.0 | 9.0 | 0.00 | 0.00 | 0.00 | 93 | 1015.7 |
| 20260902082403 | 60 | 269 | 7.0 | 11.0 | 0.00 | 0.00 | 0.00 | 93 | 1015.7 |
| 20260902081803 | 60 | 271 | 6.0 | 10.0 | 0.00 | 0.00 | 0.00 | 93 | 1015.7 |
| 20260902081203 | 60 | 271 | 6.0 | 9.0 | 0.00 | 0.00 | 0.00 | 93 | 1015.8 |
| 20260902080603 | 60 | 273 | 6.0 | 11.0 | 0.00 | 0.00 | 0.00 | 93 | 1015.8 |
| 20260902080003 | 60 | 272 | 6.0 | 12.0 | 0.00 | 0.00 | 0.00 | 93 | 1015.7 |
| 20260902075403 | 60 | 271 | 6.0 | 12.0 | 0.00 | 0.00 | 0.00 | 93 | 1015.7 |
| 20260902074803 | 60 | 270 | 5.0 | 12.0 | 0.00 | 0.00 | 0.00 | 93 | 1015.8 |
| 20260902074203 | 60 | 271 | 5.0 | 9.0 | 0.00 | 0.00 | 0.00 | 93 | 1015.7 |
| 20260902073605 | 60 | 271 | 5.0 | 9.0 | 0.00 | 0.00 | 0.00 | 93 | 1015.6 |
| 20260902073003 | 60 | 272 | 5.0 | 10.0 | 0.00 | 0.00 | 0.00 | 93 | 1015.7 |
| 20260902072403 | 60 | 272 | 6.0 | 10.0 | 0.00 | 0.00 | 0.00 | 94 | 1015.7 |
| 20260902071803 | 60 | 271 | 6.0 | 10.0 | 0.00 | 0.00 | 0.00 | 94 | 1015.7 |
| 20260902071203 | 60 | 270 | 6.0 | 10.0 | 0.00 | 0.00 | 0.00 | 94 | 1015.6 |
| 20260902070604 | 60 | 269 | 5.0 | 9.0 | 0.00 | 0.00 | 0.00 | 94 | 1015.6 |
| 20260902070006 | 60 | 270 | 5.0 | 9.0 | 0.00 | 0.00 | 0.00 | 94 | 1015.7 |
| 20260902065404 | 60 | 271 | 5.0 | 9.0 | 0.00 | 0.00 | 0.00 | 94 | 1015.8 |
| 20260902064804 | 60 | 271 | 6.0 | 10.0 | 0.00 | 0.00 | 0.00 | 95 | 1015.7 |
| 20260902064204 | 60 | 272 | 5.0 | 10.0 | 0.00 | 0.00 | 0.00 | 95 | 1015.7 |
| 20260902063604 | 59 | 274 | 4.0 | 8.0 | 0.00 | 0.00 | 0.00 | 95 | 1015.7 |
| 20260902063004 | 59 | 273 | 5.0 | 9.0 | 0.00 | 0.00 | 0.00 | 95 | 1015.7 |
| 20260902062403 | 59 | 269 | 5.0 | 9.0 | 0.00 | 0.00 | 0.00 | 95 | 1015.8 |
| 20260902061803 | 59 | 272 | 5.0 | 8.0 | 0.00 | 0.00 | 0.00 | 95 | 1015.8 |
| 20260902061203 | 59 | 269 | 6.0 | 9.0 | 0.00 | 0.00 | 0.00 | 95 | 1015.8 |
| 20260902060603 | 59 | 269 | 6.0 | 10.0 | 0.00 | 0.00 | 0.00 | 95 | 1015.8 |
| 20260902060004 | 59 | 270 | 6.0 | 10.0 | 0.00 | 0.00 | 0.00 | 95 | 1015.9 |
| 20260902055403 | 59 | 269 | 6.0 | 10.0 | 0.00 | 0.00 | 0.00 | 95 | 1015.9 |
| 20260902054803 | 59 | 270 | 6.0 | 10.0 | 0.00 | 0.00 | 0.00 | 96 | 1015.8 |
| 20260902054203 | 59 | 270 | 6.0 | 9.0 | 0.00 | 0.00 | 0.00 | 96 | 1015.8 |
| 20260902053603 | 59 | 269 | 5.0 | 9.0 | 0.00 | 0.00 | 0.00 | 96 | 1015.8 |
| 20260902053003 | 59 | 270 | 5.0 | 9.0 | 0.00 | 0.00 | 0.00 | 96 | 1015.9 |
| 20260902052403 | 60 | 272 | 5.0 | 9.0 | 0.00 | 0.00 | 0.00 | 96 | 1015.9 |
| 20260902051803 | 60 | 273 | 5.0 | 9.0 | 0.00 | 0.00 | 0.00 | 96 | 1015.9 |
| 20260902051203 | 60 | 271 | 5.0 | 8.0 | 0.00 | 0.00 | 0.00 | 96 | 1015.9 |
| 20260902050603 | 59 | 271 | 5.0 | 7.0 | 0.00 | 0.00 | 0.00 | 96 | 1015.9 |
| 20260902050004 | 59 | 275 | 4.0 | 7.0 | 0.00 | 0.00 | 0.00 | 96 | 1015.9 |
| 20260902045403 | 59 | 275 | 4.0 | 8.0 | 0.00 | 0.00 | 0.00 | 96 | 1016.0 |
| 20260902044803 | 59 | 273 | 4.0 | 8.0 | 0.00 | 0.00 | 0.00 | 96 | 1016.0 |
| 20260902044204 | 59 | 274 | 4.0 | 7.0 | 0.00 | 0.00 | 0.00 | 96 | 1016.0 |
| 20260902043604 | 59 | 270 | 4.0 | 7.0 | 0.00 | 0.00 | 0.00 | 95 | 1016.0 |
| 20260902043004 | 59 | 268 | 4.0 | 7.0 | 0.00 | 0.00 | 0.00 | 95 | 1016.0 |
| 20260902042404 | 59 | 270 | 4.0 | 8.0 | 0.00 | 0.00 | 0.00 | 95 | 1016.0 |
| 20260902041803 | 59 | 270 | 4.0 | 7.0 | 0.00 | 0.00 | 0.00 | 95 | 1015.9 |
| 20260902041203 | 59 | 271 | 5.0 | 9.0 | 0.00 | 0.00 | 0.00 | 95 | 1015.9 |
| 20260902040603 | 59 | 274 | 5.0 | 8.0 | 0.00 | 0.00 | 0.00 | 95 | 1015.8 |
| 20260902040003 | 59 | 269 | 3.0 | 6.0 | 0.00 | 0.00 | 0.00 | 95 | 1015.7 |
| 20260902035403 | 59 | 269 | 4.0 | 8.0 | 0.00 | 0.00 | 0.00 | 94 | 1015.8 |
| 20260902034803 | 59 | 267 | 4.0 | 8.0 | 0.00 | 0.00 | 0.00 | 94 | 1015.8 |
| 20260902034203 | 60 | 266 | 4.0 | 9.0 | 0.00 | 0.00 | 0.00 | 94 | 1015.7 |
| 20260902033603 | 60 | 270 | 5.0 | 9.0 | 0.00 | 0.00 | 0.00 | 94 | 1015.7 |
| 20260902033003 | 60 | 270 | 5.0 | 8.0 | 0.00 | 0.00 | 0.00 | 94 | 1015.6 |
| 20260902032403 | 60 | 270 | 5.0 | 10.0 | 0.00 | 0.00 | 0.00 | 94 | 1015.6 |
| 20260902031803 | 60 | 270 | 5.0 | 10.0 | 0.00 | 0.00 | 0.00 | 94 | 1015.5 |
| 20260902031203 | 60 | 273 | 6.0 | 11.0 | 0.00 | 0.00 | 0.00 | 94 | 1015.5 |
| 20260902030603 | 60 | 274 | 6.0 | 10.0 | 0.00 | 0.00 | 0.00 | 94 | 1015.5 |
| 20260902030003 | 60 | 274 | 6.0 | 11.0 | 0.00 | 0.00 | 0.00 | 94 | 1015.5 |
| 20260902025403 | 60 | 271 | 6.0 | 11.0 | 0.00 | 0.00 | 0.00 | 94 | 1015.5 |
| 20260902024803 | 60 | 271 | 6.0 | 10.0 | 0.00 | 0.00 | 0.00 | 93 | 1015.4 |
| 20260902024203 | 60 | 270 | 6.0 | 10.0 | 0.00 | 0.00 | 0.00 | 93 | 1015.4 |
| 20260902023603 | 60 | 271 | 6.0 | 10.0 | 0.00 | 0.00 | 0.00 | 93 | 1015.2 |
| 20260902023003 | 60 | 270 | 6.0 | 12.0 | 0.00 | 0.00 | 0.00 | 93 | 1015.3 |
| 20260902022404 | 60 | 269 | 7.0 | 12.0 | 0.00 | 0.00 | 0.00 | 93 | 1015.4 |
| 20260902021804 | 61 | 270 | 7.0 | 11.0 | 0.00 | 0.00 | 0.00 | 93 | 1015.4 |
| 20260902021204 | 61 | 269 | 8.0 | 12.0 | 0.00 | 0.00 | 0.00 | 92 | 1015.3 |
| 20260902020604 | 61 | 269 | 8.0 | 15.0 | 0.00 | 0.00 | 0.00 | 92 | 1015.2 |
| 20260902020004 | 61 | 269 | 10.0 | 15.0 | 0.00 | 0.00 | 0.00 | 92 | 1015.3 |
| 20260902015403 | 61 | 266 | 10.0 | 17.0 | 0.00 | 0.00 | 0.00 | 91 | 1015.2 |
| 20260902014804 | 61 | 266 | 11.0 | 17.0 | 0.00 | 0.00 | 0.00 | 91 | 1015.1 |
| 20260902014203 | 60 | 268 | 11.0 | 16.0 | 0.00 | 0.00 | 0.00 | 91 | 1015.0 |
| 20260902013603 | 61 | 267 | 11.0 | 16.0 | 0.00 | 0.00 | 0.00 | 90 | 1015.0 |
| 20260902013003 | 61 | 267 | 10.0 | 16.0 | 0.00 | 0.00 | 0.00 | 89 | 1015.0 |
| 20260902012403 | 62 | 268 | 10.0 | 17.0 | 0.00 | 0.00 | 0.00 | 88 | 1015.0 |
| 20260902011803 | 63 | 268 | 11.0 | 17.0 | 0.00 | 0.00 | 0.00 | 86 | 1015.0 |
| 20260902011203 | 63 | 267 | 11.0 | 17.0 | 0.00 | 0.00 | 0.00 | 86 | 1014.9 |
| 20260902010603 | 63 | 267 | 11.0 | 17.0 | 0.00 | 0.00 | 0.00 | 86 | 1015.0 |
| 20260902010003 | 62 | 268 | 10.0 | 16.0 | 0.00 | 0.00 | 0.00 | 87 | 1015.1 |
| 20260902005403 | 63 | 269 | 9.0 | 15.0 | 0.00 | 0.00 | 0.00 | 85 | 1015.0 |
| 20260902004803 | 64 | 267 | 10.0 | 14.0 | 0.00 | 0.00 | 0.00 | 84 | 1015.0 |
| 20260902004203 | 64 | 269 | 10.0 | 14.0 | 0.00 | 0.00 | 0.00 | 83 | 1015.0 |
| 20260902003603 | 65 | 270 | 9.0 | 14.0 | 0.00 | 0.00 | 0.00 | 82 | 1015.0 |
| 20260902003003 | 65 | 270 | 10.0 | 17.0 | 0.00 | 0.00 | 0.00 | 82 | 1015.0 |
| 20260902002403 | 64 | 268 | 10.0 | 17.0 | 0.00 | 0.00 | 0.00 | 82 | 1015.0 |
| 20260902001803 | 64 | 269 | 9.0 | 16.0 | 0.00 | 0.00 | 0.00 | 82 | 1015.1 |
| 20260902001204 | 64 | 270 | 10.0 | 16.0 | 0.00 | 0.00 | 0.00 | 82 | 1015.0 |
| 20260902000604 | 64 | 270 | 10.0 | 15.0 | 0.00 | 0.00 | 0.00 | 83 | 1015.1 |
| 20260902000004 | 64 | 269 | 10.0 | 15.0 | 0.00 | 0.00 | 0.00 | 83 | 1015.1 |
| 20260901235404 | 64 | 271 | 10.0 | 15.0 | 0.00 | 0.00 | 0.00 | 82 | 1015.1 |
| 20260901234804 | 65 | 271 | 10.0 | 16.0 | 0.00 | 0.00 | 0.00 | 82 | 1015.0 |
| 20260901234203 | 64 | 269 | 10.0 | 16.0 | 0.00 | 0.00 | 0.00 | 84 | 1015.1 |
| 20260901233603 | 64 | 269 | 10.0 | 16.0 | 0.00 | 0.00 | 0.00 | 84 | 1015.2 |
| 20260901233003 | 63 | 268 | 11.0 | 17.0 | 0.00 | 0.00 | 0.00 | 85 | 1015.2 |